User: anonymous   Login
Location: Clayton (historical)
(34.0300°N, 118.0259°W)
Time: 08:38:17
(UTC+00:00)
Language:

Meteor 1-24 Rocket - Orbit

View from above orbital plane
View from above orbital plane
View from above satellite
View from above satellite

Ground track
Ground track

The orbit data is extracted from the following two-line orbital elements,

1 08800U 76032B   21018.74544489  .00000233  00000-0  11869-3 0  9997
2 08800  81.2508  21.3346 0096425  72.3951 288.7724 14.10157533302827
Epoch (UTC): 18 January 2021 17:53:26
Eccentricity: 0.0096425
inclination: 81.2508°
perigee height: 789 km
apogee height: 928 km
right ascension of ascending node: 21.3346°
argument of perigee: 72.3951°
revolutions per day: 14.10157533
mean anomaly at epoch: 288.7724°
orbit number at epoch: 30282

The dashed part of the orbit path shows where the satellite is in the earth's shadow,  

DLR